Regional Weather Roundup
Issued by NWS

Home | Current Version | Previous Version | Graphics & Text | Print | Product List | Glossary On
Versions: 1 2 3 4 5 6 7 8 9 10 11 12 13 14 15 16 17 18 19 20 21 22 23 24 25 26 27 28 29 30 31 32 33 34 35 36 37 38 39 40 41 42 43 44 45 46 47 48 49 50
000
ASUS45 KTFX 272319
RWRMT
MONTANA HOURLY WEATHER ROUNDUP
NATIONAL WEATHER SERVICE GREAT FALLS MT
519 PM MDT FRI MAR 27 2015

NOTE: "FAIR" INDICATES FEW OR NO CLOUDS BELOW 12000 FEET WITH NO
SIGNIFICANT WEATHER AND/OR OBSTRUCTIONS TO VISIBILITY.

* THESE STATIONS ARE NOT UNDER NWS QUALITY CONTROL. THEY DO NOT
   REPORT WEATHER SUCH AS PRECIPITATION OR FOG.

MTZ001>007-043-280000-
WEST OF THE DIVIDE
CITY           SKY/WX    TMP DP  RH WIND       PRES   REMARKS
KALISPELL      MOCLDY    64  43  47 S9        29.96F
MISSOULA       CLEAR     70  37  30 CALM      30.00F
BUTTE          CLEAR     68  28  22 NW14      30.08F
MULLAN PASS    FAIR      55  37  51 VRB7      30.09F
* ESSEX        N/A       65  36  34 S4G9       N/A
* EUREKA APT   CLEAR     70  39  32 CALM      29.94F
* HAMILTON APT CLEAR     73  36  26 S9        30.01F
* LIBBY APT    CLEAR     72  43  35 S6        29.95F
* LINCOLN      N/A       69  34  28 W6G14      N/A
* LOOKOUT PASS N/A       63  41  45 E6G17      N/A
* POLSON       N/A       71  45  39 SE2        N/A
* SEELEY LAKE  N/A       66  36  33 NW7G19     N/A
* THOMP F APT  CLEAR     59  33  38 S8G18      N/A
$$

MTZ008-052>055-280000-
SOUTHWEST MONTANA
CITY           SKY/WX    TMP DP  RH WIND       PRES   REMARKS
BOZEMAN        CLEAR     73  28  19 W12       30.01F
DILLON         CLEAR     72  25  17 W18G26    30.06F
* W YELLOWSTON CLEAR     59  33  38 SW6G14     N/A
* BOULDER HILL N/A       67  28  23 S5G12      N/A
* HOMESTAKE PS N/A       61  26  26 NW14G21    N/A
* MONIDA PASS  N/A       57  33  40 S17G26     N/A
* RAYNOLDS PAS N/A       57  37  47 SE12G19    N/A
* WHITEHALL    N/A       77  30  18 NW8G19     N/A
* WISE RIVER   N/A       66  29  25 W14G23     N/A
$$

MTZ009>010-012-014-046-048-049-054-280000-
EAST SLOPES AND CENTRAL MONTANA
CITY           SKY/WX    TMP DP  RH WIND       PRES   REMARKS
CUT BANK       MOCLDY    66  30  26 W29G35    29.93F
GREAT FALLS    PTCLDY    73  27  18 W21       29.94F
HELENA         PTCLDY    72  36  27 N3        29.98F
MALMSTROM AFB  CLEAR     72  27  19 W17G22    29.94F
* DEARBORN     N/A       70  33  26 SE3G8      N/A
* EAST GLACIER N/A       62  33  34 NW26G37    N/A
* MONARCH      N/A       64  17  16 NW20       N/A
* PENDROY      N/A       67  16  14 W6         N/A
* ROGERS PASS  N/A       63  32  31 SE8G24     N/A
* SAINT MARY   N/A       62  34  35 SW9G21     N/A
* WHITE SULPH  N/A       66  29  25 NW14G29    N/A
$$

MTZ011-013-016-021-035-040-045-047-050-051-280000-
NORTH CENTRAL MONTANA
CITY           SKY/WX    TMP DP  RH WIND       PRES   REMARKS
HAVRE          MOCLDY    73  27  18 NW15      29.86F
* N BAR RANCH  CLEAR     70  25  18 NW18      29.98F
* CHINOOK      MOCLDY    70  34  27 N9        29.87F
* FORT BENTON  PTCLDY    75  21  13 W14G23    29.90F
* CHESTER      N/A       70  26  19 W20G29     N/A
* DENTON       N/A       72  26  18 NW18       N/A
* GEYSER       N/A       70  23  17 W17G29     N/A
* JUDITH GAP   N/A       68  22  17 VRB23G29    N/A
* LOMA         N/A       75  22  14 W19G28     N/A
$$

MTZ017>020-022>027-061-062-280000-
NORTHEAST MONTANA
CITY           SKY/WX    TMP DP  RH WIND       PRES   REMARKS
GLASGOW        PTCLDY    70  36  29 W12       29.87F
GLENDIVE       MOCLDY    68  37  32 N13G22    29.89F
JORDAN         CLOUDY    68  36  31 NW13      29.90F
SIDNEY         PTCLDY    64  37  37 NW5       29.88F
WOLF POINT     MOCLDY    70  36  29 NW9       29.87F
* BEAVER HILL  N/A       64  34  33 NW17G24    N/A
* CIRCLE       N/A       68  40  36 W8G16      N/A
* LINDSAY DVD  N/A       65  35  33 W17G25     N/A
* NAVAJO       N/A       61  37  41 N6G12      N/A
* PLENTYWOOD A MOCLDY    61  39  44 NW12G20   29.87F
* POPLAR APT   MOCLDY    64  39  40 W8        29.88S
* SACO         N/A       68  35  30 W13G20     N/A
$$

MTZ028>042-056>058-280000-
SOUTHCENTRAL AND SOUTHEAST MONTANA
CITY           SKY/WX    TMP DP  RH WIND       PRES   REMARKS
BAKER          CLEAR     66  36  33 NW16      29.90F
BILLINGS       PTCLDY    75  21  13 W21       29.94F
LIVINGSTON     CLEAR     73  30  20 W18G26    30.00F
MILES CITY     MOCLDY    70  34  27 N17       29.90F
* BIG TIMBER A CLEAR     68  30  24 W17G22    30.01F
* FORSYTH APT  CLOUDY    72  28  19 NW14      29.91F
* ALZADA       N/A       66  33  29 NW14       N/A
* HYSHAM       N/A       70  26  19 N2G7       N/A
* LAME DEER    N/A       64  28  26 NW8G17     N/A
* REED POINT   N/A       74  33  22 W16G23     N/A
* ROSCOE HILL  N/A       66  12  12 W2G11      N/A
$$

REGIONAL REPORTS...DAKOTAS
CITY           SKY/WX    TMP DP  RH WIND       PRES   REMARKS
WILLISTON      PTCLDY    63  36  37 N15G24    29.89R
DICKINSON      CLEAR     63  34  34 NW17G30   29.87R
BEACH          CLEAR     64  34  33 NW15G21   29.90S
CROSBY         MOCLDY    55  39  55 NW16G23   29.90S
TIOGA          MOCLDY    54  37  53 N15       29.93R
WATFORD CITY   FAIR      59  36  42 N14G25    29.87S
BISMARCK       MOCLDY    50  34  54 SE9       29.88S
GRAND FORKS    CLOUDY    34  19  54 S13       30.08R WCI  25
FARGO          CLOUDY    36  16  44 SE8       30.09R WCI  30
BUFFALO SD     PTCLDY    66  36  33 NW25G30   29.83F
RAPID CITY     MOCLDY    66  36  33 N24G30    29.92S
$$

REGIONAL REPORTS...WYOMING/IDAHO/WASHINGTON
CITY           SKY/WX    TMP DP  RH WIND       PRES   REMARKS
GILLETTE       PTCLDY    66  30  26 N16G28    29.98F
SHERIDAN       PTCLDY    72  28  19 NW23      29.97F
CODY           PTCLDY    70  27  20 NW13G21   30.05F
YELLOWSTONE LA CLEAR     54  25  33 W13G18    30.26F
SALMON         CLEAR    N/A N/A N/A W5        30.02F
MULLAN PASS    FAIR      55  37  51 VRB7      30.09S
SAND POINT     CLEAR     59  46  62 CALM      29.97F
SPOKANE        FAIR      70  46  42 SW10G23   29.96F
$$

REGIONAL REPORTS...ALBERTA
CITY           SKY/WX    TMP DP  RH WIND       PRES   REMARKS
CALGARY        FAIR      70  21  16 W20       29.78F
LETHBRIDGE     MOCLDY    68  30  24 W23G32    29.84F
MEDICINE HAT   MOCLDY    66  36  33 CALM      29.84F
EDMONTON       MOCLDY    59  45  60 SE9       29.73F
WATERTON GATE  N/A       63  36  37 SW18G26    N/A
CARDSTON       N/A       66  36  33 W15G24     N/A
MILK RIVER     N/A       70  30  23 W22G29     N/A
$$

REGIONAL REPORTS...SASKATCHEWAN
CITY           SKY/WX    TMP DP  RH WIND       PRES   REMARKS
SWIFT CURRENT  CLEAR     64  34  33 N9        29.84F
MOOSE JAW      MOCLDY    55  43  64 N10       29.89S
REGINA         MOCLDY    50  41  71 N13       29.90S
VAL MARIE      N/A       66  34  31 NW13       N/A
ASSINIBOIA     N/A       61  39  44 N9         N/A
CORONACH       N/A       63  36  37 NW14G21    N/A

$$




USA.gov is the U.S. government's official web portal to all federal, state and local government web resources and services.